Location: Chervonnoye
(48.6000°N, 34.4000°E)
Time: 01:42:44
(UTC+00:00)

NOAA 15 - Pass Details

Date: 04 December 2021
Orbit: 797 x 812 km, 98.7° (Epoch: 17 January)

Event Time Altitude Azimuth Distance (km) Brightness Sun altitude
Rises 17:26:59 0° 196° (SSW) 3,316 7.9 -35.3°
Reaches altitude 10° 17:29:38 10° 208° (SSW) 2,388 7.2 -35.7°
Maximum altitude 17:34:08 28° 266° (W) 1,482 6.4 -36.4°
Drops below altitude 10° 17:38:38 10° 325° (NW) 2,395 7.5 -37.2°
Sets 17:41:19 0° 337° (NNW) 3,328 8.2 -37.6°
